Regional Weather Roundup
Issued by NWS

Home | Current Version | Previous Version | Text Only | Print | Product List | Glossary On
Versions: 1 2 3 4 5 6 7 8 9 10 11 12 13 14 15 16 17 18 19 20 21 22 23 24 25 26 27 28 29 30 31 32 33 34 35 36 37 38 39 40 41 42 43 44 45 46 47 48 49 50
000
ASUS43 KMPX 280901
RWRMN
WEATHER ROUNDUP FOR MINNESOTA
NATIONAL WEATHER SERVICE TWIN CITIES/CHANHASSEN MN
400 AM CDT TUE JUL 28 2015


NOTE: "FAIR" INDICATES FEW OR NO CLOUDS BELOW 12,000 FEET WITH NO
SIGNIFICANT WEATHER AND/OR OBSTRUCTIONS TO VISIBILITY. N/A MEANS
CURRENT SKY AND/OR WEATHER CONDITIONS ARE NOT AVAILABLE.

MNZ060>063-068>070-281000-
   Twin Cities Metro

CITY           SKY/WX    TMP DP  RH WIND       PRES   REMARKS
TWIN CITIES    CLEAR     74  70  87 SE14      29.83F
ST PAUL        CLEAR     74  70  87 SE12      29.83F
CRYSTAL        CLEAR     76  70  82 SE9       29.80F
BLAINE         CLEAR     75  73  94 SE14      29.82F
LAKEVILLE      CLEAR     72  70  94 SE6       29.83F
EDEN PRAIRIE   PTCLDY    74  71  91 SE13      29.81F
SOUTH ST PAUL  CLEAR     73  70  88 SE6       29.84F
LAKE ELMO      FAIR      73  70  88 SE7       29.86F
$$
MNZ001>005-007-008-013>017-022>024-027-028-281000-
   Northwest Minnesota

CITY           SKY/WX    TMP DP  RH WIND       PRES   REMARKS
BEMIDJI        CLOUDY    74  69  86 SE14      29.74F
HALLOCK        MOCLDY    73  72  94 SE15      29.61F
ROSEAU         MOCLDY    73  68  83 SE8       29.70F
WARROAD        CLEAR     72  68  88 SE8       29.71F
THIEF RVR FALL MOCLDY    73  70  88 SE12      29.67F
CROOKSTON      CLOUDY    73  72  94 SE14      29.63F
FOSSTON        MOCLDY    72  68  88 SE9       29.70F
DETROIT LAKES  CLOUDY    73  70  88 SE14      29.71F
MOORHEAD       CLOUDY    75  70  83 SE15      29.64F
PARK RAPIDS    MOCLDY    74  69  85 SE10      29.75F
MAHNOMEN       PTSUNNY   74  70  86 SE9       29.68F
$$
MNZ006-009>011-018-025>026-281000-
   North Central Minnesota

CITY           SKY/WX    TMP DP  RH WIND       PRES   REMARKS
BAUDETTE       CLEAR     71  67  87 SE13      29.74F
FLAG ISLAND    CLEAR     75  70  83 S23       29.71F
INTL FALLS     PTCLDY    69  66  90 SE8       29.80F
WASKISH        CLEAR     72  68  88 E3        29.75F
BIG FORK       CLEAR     72  66  83 SE7       29.80F
LONGVILLE      CLOUDY    72  70  94 SE10      29.79S
GRAND RAPIDS   CLEAR     70  64  83 SE8       29.81F
CRANE LAKE     CLEAR     61  61 100 CALM      29.86F
ORR            CLEAR     68  61  77 CALM      29.81F
COOK           CLEAR     70  64  83 E3        29.85F
WALKER         CLOUDY    73  69  87 SE8       29.77F
$$
MNZ012-019>021-037-281000-
   Northeast Minnesota

CITY           SKY/WX    TMP DP  RH WIND       PRES   REMARKS
DULUTH         CLEAR     70  65  84 SE9       29.87F
ELY            CLEAR     66  61  82 SE5       29.88F
HIBBING        CLEAR     66  63  90 SE7       29.84F
EVELETH        CLEAR     68  63  83 SE5       29.87F
DULUTH HARBOR  CLEAR     72  66  83 NE6       29.86F
TWO HARBORS    PTCLDY    68  63  83 CALM      29.87F
SILVER BAY     CLOUDY    68  63  83 CALM      29.88F
GRAND MARAIS     N/A     58  55  90 NE5       29.90F
G MARAIS ARPRT   N/A     64  57  77 E5        29.96F
$$
MNZ029>031-032-039>041-046>048-054>057-064-281000-
   West Central Minnesota

CITY           SKY/WX    TMP DP  RH WIND       PRES   REMARKS
FERGUS FALLS   TSTM      73  68  83 S16G22    29.73R
WHEATON        TSTM      66  64  94 S8        29.80R
MORRIS         TSTM      72  70  94 S5        29.77R
ALEXANDRIA     LGT RAIN  72  66  81 SE10      29.75S
ELBOW LAKE     TSTM      71  68  92 S21G26    29.76R
WADENA         CLOUDY    72  70  94 SE10      29.75S
GLENWOOD       TSTM      70  66  88 SE14G20   29.74S
APPLETON       TSTM      72  68  88 W26G38    29.72R
BENSON         RAIN      70  66  88 S6        29.70S
ORTONVILLE     TSTM      70  66  88 S12G25    29.72R
MADISON        TSTM      72  68  88 W20G33    29.76R
WILLMAR        MOCLDY    72  68  88 SE16G23   29.71F
$$
MNZ033>034-036-042>043-049>051-058-059-281000-
   Central Minnesota

CITY           SKY/WX    TMP DP  RH WIND       PRES   REMARKS
ST CLOUD       PTCLDY    73  71  93 SE12      29.78F
SAUK CENTRE    PTSUNNY  N/A N/A N/A SE7       29.77R
PAYNESVILLE    CLOUDY    71  66  84 E13G22    29.75F
AITKIN         MOCLDY    73  66  78 SE7       29.79F
PINE RIVER     MOCLDY    73  70  88 SE9       29.81F
BRAINERD       MOCLDY    73  70  90 SE9       29.78F
STAPLES        MOCLDY    72  68  88 SE10      29.76F
LONG PRAIRIE   FAIR      70  66  88 SE10G16   29.78R
LITTLE FALLS   PTCLDY    72  68  88 SE10G16   29.77F
LITCHFIELD     CLOUDY    75  70  83 SE15      29.77F
BUFFALO        PTCLDY    74  70  86 SE10      29.80F
MAPLE LAKE     PTCLDY    75  72  88 SE7       29.80F
$$
MNZ037-044-045-052-053-281000-
   East Central Minnesota

CITY           SKY/WX    TMP DP  RH WIND       PRES   REMARKS
PRINCETON      MOCLDY    75  72  88 SE8       29.81F
MORA           CLEAR     70  68  94 SE6       29.83F
CAMBRIDGE      CLEAR     75  66  73 SE7       29.81F
RUSH CITY      CLEAR     71  68  90 SE8       29.83F
MOOSE LAKE     CLEAR     70  66  88 SE6       29.83F
HINCKLEY       FAIR      70  70 100 SE3       29.84F
CLOQUET        CLEAR     68  64  88 E6        29.86F
MCGREGOR       PTCLDY    70  68  94 SE6       29.83F
$$
MNZ071>073-080-081-089-090-097-098-281000-
   Southwest Minnesota

CITY           SKY/WX    TMP DP  RH WIND       PRES   REMARKS
MONTEVIDEO     TSTM      70  66  88 W3        29.72F
GRANITE FALLS  CLOUDY    70  67  89 SE12      29.72S
CANBY          TSTM      70  67  90 W16G24    29.76R
MARSHALL       CLOUDY    73  66  78 SW14      29.77R THUNDER
REDWOOD FALLS  CLOUDY    73  66  78 SE18G25   29.71F
OLIVIA         CLOUDY    70  63  78 SE15G22   29.72F
PIPESTONE      TSTM      70  66  88 NW23G41   29.88R
WINDOM         CLOUDY    73  66  78 SE15G23   29.77F
WORTHINGTON    MOCLDY    72  64  78 S15G22    29.77F
JACKSON        MOCLDY    72  68  88 S17       29.81R
SLAYTON        CLOUDY    72  69  90 S14G21    29.79R
$$
MNZ065>067-074>077-082>085-091>093-281000-
   South Central Minnesota

CITY           SKY/WX    TMP DP  RH WIND       PRES   REMARKS
MANKATO        CLOUDY    73  66  78 SE15      29.80F
NEW ULM        CLOUDY    72  68  88 S14G20    29.77F
ST JAMES       MOCLDY    73  70  88 SE13      29.80S
FAIRMONT       PTCLDY    72  63  73 S15       29.81F
GLENCOE        MOCLDY    74  72  91 SE12G17   29.78F
FARIBAULT      CLEAR     73  72  94 SE13      29.84F
OWATONNA       CLEAR     73  70  88 SE14G20   29.84F
WASECA         MOCLDY    72  70  94 SE10G16   29.84F
ALBERT LEA     PTCLDY    73  72  94 S13       29.85F
$$
MNZ078>079-086>088-094>096-281000-
   Southeast Minnesota

CITY           SKY/WX    TMP DP  RH WIND       PRES   REMARKS
ROCHESTER      CLEAR     71  69  93 SE12      29.89F
RED WING       PTCLDY    75  70  83 SE8       29.85F
STANTON        PTCLDY    74  69  83 SE8       29.83F
DODGE CENTER   CLEAR     72  70  94 SE9       29.87F
WINONA         CLEAR     72  70  94 SE6       29.91F
AUSTIN         CLEAR     73  72  94 S9        29.86F FOG
PRESTON        CLEAR     70  68  92 S9        29.93F
$$
ABBREVIATIONS USED IN REMARKS
   TC - TEMPERATURES IN CELSIUS
  WCI - WIND CHILL INDEX
   HX - HEAT INDEX
  VSB - VISIBILITY
$$


USA.gov is the U.S. government's official web portal to all federal, state and local government web resources and services.